Location: Béaulencourt
(50.0796°N, 2.8795°E)
Time: 14:55:15
(UTC+00:00)

Nadezhda 3 Rocket - Pass Details

Date: 20 January 2026
Orbit: 956 x 997 km, 82.9° (Epoch: 16 February)

Event Time Altitude Azimuth Distance (km) Brightness Sun altitude
Rises 04:34:21 0° 351° (N) 3,681 7.0 -28.8°
Reaches altitude 10° 04:36:53 10° 355° (N) 2,735 6.3 -28.4°
Maximum altitude 04:43:08 66° 77° (ENE) 1,071 4.3 -27.4°
Drops below altitude 10° 04:49:24 10° 160° (SSE) 2,745 6.6 -26.4°
Sets 04:51:56 0° 163° (SSE) 3,694 7.2 -26.0°
